| time (UTC) | temp F | wind direction | speed knots | gust knots | rain 1hr in | rain 24hr in | rain mn in | humidity % | barometer mb |
| 20260507155031 | 61 | 31 | 1.7 | 4.3 | 0.00 | 0.19 | 0.19 | 61 | 1006.6 |
| 20260507154528 | 60 | 354 | 1.7 | 1.7 | 0.00 | 0.19 | 0.19 | 62 | 1006.6 |
| 20260507154026 | 60 | 294 | 1.7 | 1.7 | 0.00 | 0.19 | 0.19 | 61 | 1006.7 |
| 20260507153522 | 60 | 26 | 0.0 | 0.0 | 0.00 | 0.19 | 0.19 | 67 | 1006.7 |
| 20260507153018 | 59 | 2 | 2.6 | 2.6 | 0.00 | 0.19 | 0.19 | 64 | 1006.9 |
| 20260507152514 | 59 | 314 | 2.6 | 2.6 | 0.00 | 0.19 | 0.19 | 65 | 1007.0 |
| 20260507152011 | 59 | 321 | 0.9 | 0.9 | 0.00 | 0.19 | 0.19 | 63 | 1007.0 |
| 20260507151507 | 58 | 307 | 1.7 | 1.7 | 0.00 | 0.19 | 0.19 | 67 | 1006.9 |
| 20260507151004 | 59 | 44 | 1.7 | 2.6 | 0.00 | 0.19 | 0.19 | 65 | 1006.9 |
| 20260507150501 | 58 | 314 | 1.7 | 1.7 | 0.00 | 0.19 | 0.19 | 63 | 1007.1 |
| 20260507145957 | 57 | 4 | 1.7 | 1.7 | 0.00 | 0.19 | 0.19 | 68 | 1007.2 |
| 20260507145453 | 59 | 315 | 4.3 | 6.1 | 0.00 | 0.19 | 0.19 | 64 | 1007.3 |
| 20260507144950 | 58 | 278 | 0.9 | 0.9 | 0.00 | 0.19 | 0.19 | 71 | 1007.0 |
| 20260507144447 | 58 | 293 | 1.7 | 1.7 | 0.00 | 0.19 | 0.19 | 69 | 1007.4 |
| 20260507143944 | 57 | 298 | 6.1 | 7.0 | 0.00 | 0.19 | 0.19 | 66 | 1007.2 |
| 20260507143442 | 57 | 288 | 0.9 | 0.9 | 0.00 | 0.19 | 0.19 | 70 | 1007.4 |
| 20260507142938 | 57 | 331 | 3.5 | 4.3 | 0.00 | 0.19 | 0.19 | 66 | 1007.3 |
| 20260507142434 | 57 | 313 | 1.7 | 4.3 | 0.00 | 0.19 | 0.19 | 71 | 1007.5 |
| 20260507141931 | 57 | 35 | 1.7 | 2.6 | 0.00 | 0.19 | 0.19 | 70 | 1007.5 |
| 20260507141427 | 56 | 312 | 0.9 | 1.7 | 0.00 | 0.19 | 0.19 | 75 | 1007.2 |
| 20260507140924 | 56 | 294 | 1.7 | 2.6 | 0.00 | 0.19 | 0.19 | 74 | 1007.5 |
| 20260507140420 | 56 | 281 | 2.6 | 4.3 | 0.00 | 0.19 | 0.19 | 74 | 1007.5 |
| 20260507135919 | 56 | 357 | 0.9 | 1.7 | 0.00 | 0.19 | 0.19 | 75 | 1007.7 |
| 20260507135414 | 55 | 330 | 0.9 | 0.9 | 0.00 | 0.19 | 0.19 | 77 | 1007.5 |
| 20260507134912 | 57 | 29 | 0.9 | 0.9 | 0.00 | 0.19 | 0.19 | 74 | 1007.7 |
| 20260507134408 | 55 | 325 | 0.0 | 0.9 | 0.00 | 0.19 | 0.19 | 78 | 1008.1 |
| 20260507133904 | 55 | 328 | 2.6 | 4.3 | 0.00 | 0.19 | 0.19 | 79 | 1007.9 |
| 20260507133400 | 55 | 345 | 2.6 | 4.3 | 0.00 | 0.19 | 0.19 | 76 | 1007.9 |
| 20260507132859 | 55 | 348 | 2.6 | 2.6 | 0.00 | 0.19 | 0.19 | 82 | 1008.1 |
| 20260507132355 | 54 | 357 | 0.9 | 1.7 | 0.00 | 0.19 | 0.19 | 84 | 1008.0 |
| 20260507131852 | 53 | 310 | 4.3 | 6.1 | 0.00 | 0.19 | 0.19 | 81 | 1008.0 |
| 20260507131349 | 53 | 351 | 0.9 | 0.9 | 0.00 | 0.19 | 0.19 | 84 | 1007.8 |
| 20260507130846 | 53 | 336 | 1.7 | 1.7 | 0.00 | 0.19 | 0.19 | 83 | 1007.9 |
| 20260507130343 | 53 | 319 | 1.7 | 1.7 | 0.00 | 0.19 | 0.19 | 85 | 1007.7 |
| 20260507125842 | 52 | 312 | 0.9 | 1.7 | 0.00 | 0.19 | 0.19 | 87 | 1008.1 |
| 20260507125339 | 52 | 317 | 2.6 | 4.3 | 0.00 | 0.19 | 0.19 | 86 | 1007.8 |
| 20260507124836 | 51 | 328 | 0.9 | 1.7 | 0.00 | 0.19 | 0.19 | 89 | 1007.6 |
| 20260507124332 | 50 | 349 | 0.0 | 0.0 | 0.00 | 0.19 | 0.19 | 92 | 1007.6 |
| 20260507123831 | 50 | 0 | 0.0 | 0.0 | 0.00 | 0.19 | 0.19 | 96 | 1007.7 |
| 20260507123328 | 48 | 305 | 0.9 | 1.7 | 0.00 | 0.19 | 0.19 | 96 | 1007.5 |
| 20260507122824 | 48 | 355 | 0.0 | 0.0 | 0.00 | 0.19 | 0.19 | 96 | 1007.5 |
| 20260507122319 | 48 | 316 | 1.7 | 2.6 | 0.00 | 0.19 | 0.19 | 97 | 1007.6 |
| 20260507121816 | 48 | 332 | 2.6 | 2.6 | 0.00 | 0.19 | 0.19 | 97 | 1007.6 |
| 20260507121312 | 48 | 302 | 1.7 | 1.7 | 0.00 | 0.19 | 0.19 | 98 | 1007.8 |
| 20260507120808 | 48 | 350 | 0.9 | 1.7 | 0.00 | 0.19 | 0.19 | 99 | 1007.4 |
| 20260507120305 | 48 | 7 | 1.7 | 2.6 | 0.00 | 0.19 | 0.19 | 99 | 1008.2 |
| 20260507115801 | 47 | 300 | 3.5 | 4.3 | 0.00 | 0.19 | 0.19 | 99 | 1008.3 |
| 20260507115257 | 47 | 319 | 2.6 | 4.3 | 0.00 | 0.19 | 0.19 | 99 | 1008.0 |
| 20260507114753 | 47 | 284 | 0.0 | 0.0 | 0.00 | 0.19 | 0.19 | 99 | 1007.9 |
| 20260507114250 | 46 | 333 | 1.7 | 1.7 | 0.00 | 0.19 | 0.19 | 99 | 1008.5 |
| 20260507113748 | 46 | 319 | 0.0 | 0.0 | 0.00 | 0.19 | 0.19 | 99 | 1008.6 |
| 20260507113244 | 46 | 338 | 0.0 | 0.0 | 0.00 | 0.19 | 0.19 | 99 | 1008.4 |
| 20260507112742 | 46 | 356 | 0.0 | 0.0 | 0.00 | 0.19 | 0.19 | 99 | 1008.3 |
| 20260507112238 | 46 | 333 | 0.0 | 0.0 | 0.00 | 0.19 | 0.19 | 99 | 1008.8 |
| 20260507111737 | 46 | 299 | 1.7 | 1.7 | 0.00 | 0.19 | 0.19 | 99 | 1008.8 |
| 20260507111233 | 46 | 346 | 0.0 | 0.0 | 0.00 | 0.19 | 0.19 | 99 | 1007.8 |
| 20260507110729 | 46 | 328 | 2.6 | 2.6 | 0.00 | 0.19 | 0.19 | 99 | 1008.4 |
| 20260507110226 | 46 | 317 | 0.0 | 0.0 | 0.00 | 0.19 | 0.19 | 99 | 1008.1 |
| 20260507105722 | 46 | 321 | 0.0 | 0.0 | 0.00 | 0.19 | 0.19 | 99 | 1008.5 |
| 20260507105218 | 46 | 316 | 0.0 | 0.0 | 0.00 | 0.19 | 0.19 | 99 | 1008.2 |
| 20260507104716 | 46 | 330 | 0.0 | 0.0 | 0.00 | 0.19 | 0.19 | 99 | 1007.7 |
| 20260507104212 | 46 | 33 | 0.0 | 0.0 | 0.00 | 0.19 | 0.19 | 99 | 1007.7 |
| 20260507103708 | 46 | 328 | 0.0 | 0.0 | 0.00 | 0.19 | 0.19 | 99 | 1007.7 |
| 20260507103205 | 46 | 342 | 0.0 | 0.0 | 0.00 | 0.19 | 0.19 | 99 | 1007.7 |
| 20260507102701 | 45 | 349 | 0.9 | 0.9 | 0.00 | 0.19 | 0.19 | 99 | 1007.6 |
| 20260507102158 | 46 | 340 | 0.0 | 0.0 | 0.00 | 0.19 | 0.19 | 99 | 1007.3 |
| 20260507101654 | 46 | 347 | 0.0 | 0.0 | 0.00 | 0.19 | 0.19 | 99 | 1007.2 |
| 20260507101149 | 46 | 337 | 2.6 | 4.3 | 0.00 | 0.19 | 0.19 | 99 | 1007.1 |
| 20260507100647 | 46 | 304 | 0.9 | 1.7 | 0.00 | 0.19 | 0.19 | 99 | 1007.3 |
| 20260507100145 | 46 | 332 | 0.9 | 0.9 | 0.00 | 0.19 | 0.19 | 99 | 1007.4 |
| 20260507095643 | 46 | 324 | 0.0 | 0.0 | 0.00 | 0.19 | 0.19 | 99 | 1007.2 |
| 20260507095139 | 46 | 335 | 1.7 | 1.7 | 0.00 | 0.19 | 0.19 | 99 | 1007.1 |
| 20260507094636 | 46 | 324 | 0.0 | 0.0 | 0.00 | 0.19 | 0.19 | 99 | 1006.8 |
| 20260507094132 | 46 | 343 | 0.0 | 0.0 | 0.00 | 0.19 | 0.19 | 99 | 1006.7 |
| 20260507093630 | 46 | 345 | 0.0 | 0.0 | 0.00 | 0.19 | 0.19 | 99 | 1007.2 |
| 20260507093129 | 46 | 17 | 0.0 | 0.0 | 0.00 | 0.19 | 0.19 | 99 | 1007.5 |
| 20260507092625 | 46 | 330 | 0.9 | 1.7 | 0.00 | 0.19 | 0.19 | 99 | 1007.6 |
| 20260507092121 | 46 | 314 | 1.7 | 1.7 | 0.00 | 0.19 | 0.19 | 99 | 1007.3 |
| 20260507091618 | 46 | 334 | 1.7 | 4.3 | 0.00 | 0.19 | 0.19 | 99 | 1007.4 |
| 20260507091114 | 47 | 281 | 3.5 | 5.2 | 0.00 | 0.19 | 0.19 | 99 | 1007.5 |
| 20260507090610 | 47 | 317 | 0.0 | 0.0 | 0.00 | 0.19 | 0.19 | 99 | 1007.3 |
| 20260507090107 | 48 | 300 | 3.5 | 6.1 | 0.00 | 0.19 | 0.19 | 99 | 1007.5 |
| 20260507085604 | 48 | 322 | 2.6 | 4.3 | 0.00 | 0.19 | 0.19 | 99 | 1007.0 |
| 20260507085101 | 48 | 330 | 0.0 | 0.0 | 0.00 | 0.19 | 0.19 | 99 | 1006.5 |
| 20260507084558 | 48 | 335 | 0.0 | 0.0 | 0.00 | 0.19 | 0.19 | 99 | 1006.6 |
| 20260507084055 | 48 | 333 | 0.0 | 0.0 | 0.00 | 0.19 | 0.19 | 99 | 1006.4 |
| 20260507083551 | 48 | 344 | 0.0 | 0.0 | 0.00 | 0.19 | 0.19 | 99 | 1006.5 |
| 20260507083048 | 48 | 338 | 1.7 | 1.7 | 0.00 | 0.19 | 0.19 | 99 | 1006.6 |
| 20260507082544 | 48 | 309 | 0.0 | 0.0 | 0.00 | 0.19 | 0.19 | 99 | 1006.6 |
| 20260507082041 | 48 | 332 | 0.0 | 0.0 | 0.00 | 0.19 | 0.19 | 99 | 1006.9 |
| 20260507081537 | 48 | 336 | 0.0 | 0.0 | 0.00 | 0.19 | 0.19 | 99 | 1006.7 |
| 20260507081034 | 48 | 335 | 0.0 | 0.9 | 0.00 | 0.19 | 0.19 | 99 | 1006.7 |
| 20260507080530 | 48 | 353 | 0.0 | 0.9 | 0.00 | 0.19 | 0.19 | 99 | 1006.7 |
| 20260507080026 | 48 | 351 | 0.0 | 0.0 | 0.00 | 0.19 | 0.19 | 99 | 1006.6 |
| 20260507075522 | 49 | 15 | 0.9 | 1.7 | 0.00 | 0.19 | 0.19 | 99 | 1006.3 |
| 20260507075018 | 49 | 342 | 0.0 | 0.0 | 0.00 | 0.19 | 0.19 | 99 | 1006.3 |
| 20260507074515 | 49 | 335 | 0.0 | 0.0 | 0.00 | 0.19 | 0.19 | 99 | 1006.6 |
| 20260507074014 | 49 | 297 | 3.5 | 4.3 | 0.00 | 0.19 | 0.19 | 99 | 1006.2 |
| 20260507073509 | 49 | 337 | 0.0 | 0.0 | 0.00 | 0.19 | 0.19 | 99 | 1006.3 |
| 20260507073006 | 50 | 347 | 0.0 | 0.0 | 0.05 | 0.19 | 0.19 | 99 | 1006.3 |
| 20260507072504 | 50 | 337 | 0.0 | 0.0 | 0.05 | 0.19 | 0.19 | 99 | 1006.5 |
| 20260507072001 | 50 | 305 | 0.0 | 0.0 | 0.00 | 0.18 | 0.18 | 99 | 1006.3 |
| 20260507071458 | 50 | 345 | 0.0 | 0.0 | 0.00 | 0.18 | 0.18 | 99 | 1006.2 |
| 20260507070954 | 50 | 305 | 0.0 | 0.0 | 0.07 | 0.18 | 0.18 | 99 | 1006.1 |
| 20260507070451 | 50 | 354 | 0.0 | 0.0 | 0.07 | 0.18 | 0.18 | 99 | 1006.0 |
| 20260507065948 | 50 | 300 | 2.6 | 2.6 | 0.00 | 0.17 | 0.17 | 99 | 1006.3 |
| 20260507065445 | 50 | 323 | 0.9 | 1.7 | 0.00 | 0.17 | 0.17 | 99 | 1006.2 |
| 20260507064942 | 50 | 302 | 4.3 | 6.1 | 0.00 | 0.17 | 0.17 | 99 | 1006.0 |
| 20260507064440 | 50 | 313 | 0.0 | 0.0 | 0.00 | 0.17 | 0.17 | 99 | 1005.9 |
| 20260507063938 | 50 | 305 | 2.6 | 2.6 | 0.00 | 0.17 | 0.17 | 99 | 1005.7 |
| 20260507063435 | 50 | 331 | 0.0 | 0.0 | 0.00 | 0.17 | 0.17 | 99 | 1005.8 |
| 20260507062932 | 50 | 256 | 0.0 | 0.0 | 0.05 | 0.17 | 0.17 | 99 | 1005.9 |
| 20260507062429 | 50 | 208 | 0.0 | 0.0 | 0.12 | 0.17 | 0.17 | 99 | 1005.6 |
| 20260507061926 | 50 | 261 | 0.0 | 0.0 | 0.24 | 0.17 | 0.17 | 99 | 1005.5 |
| 20260507061424 | 50 | 346 | 0.0 | 0.0 | 0.28 | 0.15 | 0.15 | 99 | 1005.6 |
| 20260507060923 | 50 | 335 | 0.0 | 0.0 | 0.31 | 0.13 | 0.13 | 99 | 1006.4 |
| 20260507060418 | 50 | 250 | 0.0 | 0.0 | 0.42 | 0.10 | 0.10 | 99 | 1007.1 |
| 20260507055915 | 50 | 268 | 1.7 | 2.6 | 0.40 | 0.08 | 0.08 | 99 | 1006.6 |
| 20260507055411 | 50 | 234 | 0.0 | 0.0 | 0.12 | 0.03 | 0.03 | 99 | 1006.3 |
| 20260507054908 | 50 | 296 | 0.9 | 0.9 | 0.00 | 0.01 | 0.01 | 99 | 1005.9 |
| 20260507054404 | 50 | 278 | 0.0 | 0.0 | 0.07 | 0.01 | 0.01 | 99 | 1005.9 |
| 20260507053901 | 50 | 354 | 0.0 | 0.9 | 0.07 | 0.01 | 0.01 | 99 | 1005.7 |
| 20260507053359 | 50 | 126 | 1.7 | 1.7 | 0.00 | 0.00 | 0.00 | 99 | 1005.6 |
| 20260507052858 | 50 | 294 | 0.0 | 0.0 | 0.00 | 0.00 | 0.00 | 99 | 1005.9 |
| 20260507052354 | 50 | 211 | 0.0 | 0.0 | 0.00 | 0.00 | 0.00 | 99 | 1005.9 |
| 20260507051851 | 50 | 221 | 0.0 | 0.0 | 0.00 | 0.00 | 0.00 | 99 | 1006.1 |
| 20260507051349 | 50 | 211 | 0.0 | 0.0 | 0.00 | 0.00 | 0.00 | 99 | 1006.1 |
| 20260507050845 | 50 | 196 | 1.7 | 1.7 | 0.00 | 0.00 | 0.00 | 99 | 1006.1 |
| 20260507050342 | 50 | 304 | 0.0 | 0.0 | 0.00 | 0.00 | 0.00 | 99 | 1006.1 |
| 20260507045839 | 50 | 289 | 0.0 | 0.0 | 0.00 | 0.00 | 0.00 | 99 | 1006.0 |
| 20260507045335 | 50 | 208 | 1.7 | 1.7 | 0.00 | 0.00 | 0.00 | 99 | 1006.2 |
| 20260507044833 | 50 | 197 | 0.0 | 0.0 | 0.00 | 0.00 | 0.00 | 99 | 1005.9 |
| 20260507044329 | 50 | 243 | 0.9 | 0.9 | 0.00 | 0.00 | 0.00 | 99 | 1005.8 |
| 20260507043825 | 50 | 139 | 2.6 | 2.6 | 0.00 | 0.00 | 0.00 | 99 | 1005.8 |
| 20260507043322 | 50 | 296 | 1.7 | 2.6 | 0.00 | 0.00 | 0.00 | 99 | 1006.0 |
| 20260507042818 | 50 | 214 | 0.9 | 1.7 | 0.00 | 0.00 | 0.00 | 99 | 1005.9 |
| 20260507042314 | 50 | 214 | 2.6 | 4.3 | 0.00 | 0.00 | 0.00 | 99 | 1006.3 |
| 20260507041811 | 50 | 175 | 4.3 | 5.2 | 0.00 | 0.00 | 0.00 | 99 | 1006.5 |
| 20260507041308 | 50 | 240 | 1.7 | 1.7 | 0.00 | 0.00 | 0.00 | 99 | 1006.4 |
| 20260507040805 | 50 | 323 | 5.2 | 7.0 | 0.00 | 0.00 | 0.00 | 99 | 1006.3 |
| 20260507040301 | 50 | 220 | 3.5 | 4.3 | 0.05 | 0.00 | 0.00 | 99 | 1006.3 |
| 20260507035757 | 50 | 187 | 4.3 | 5.2 | 0.05 | 0.88 | 0.88 | 99 | 1006.7 |
| 20260507035252 | 50 | 211 | 1.7 | 2.6 | 0.00 | 0.87 | 0.87 | 99 | 1006.6 |
| 20260507034750 | 50 | 202 | 0.0 | 1.7 | 0.00 | 0.87 | 0.87 | 99 | 1006.5 |
| 20260507034247 | 51 | 293 | 2.6 | 2.6 | 0.00 | 0.87 | 0.87 | 99 | 1006.6 |
| 20260507033745 | 51 | 169 | 7.0 | 7.8 | 0.00 | 0.87 | 0.87 | 99 | 1006.7 |
| 20260507033242 | 51 | 94 | 7.0 | 7.8 | 0.07 | 0.87 | 0.87 | 99 | 1006.9 |
| 20260507032739 | 51 | 139 | 2.6 | 4.3 | 0.07 | 0.87 | 0.87 | 99 | 1006.9 |
| 20260507032235 | 51 | 349 | 2.6 | 7.8 | 0.14 | 0.87 | 0.87 | 99 | 1007.1 |
| 20260507031732 | 51 | 225 | 4.3 | 5.2 | 0.19 | 0.86 | 0.86 | 99 | 1007.1 |
| 20260507031229 | 51 | 208 | 0.9 | 1.7 | 0.17 | 0.85 | 0.85 | 99 | 1007.0 |
| 20260507030726 | 52 | 202 | 0.0 | 2.6 | 0.17 | 0.83 | 0.83 | 99 | 1007.1 |
| 20260507030223 | 52 | 224 | 4.3 | 7.0 | 0.19 | 0.82 | 0.82 | 99 | 1007.2 |
| 20260507025720 | 52 | 276 | 4.3 | 6.1 | 0.19 | 0.80 | 0.80 | 99 | 1007.1 |
| 20260507025217 | 53 | 243 | 1.7 | 2.6 | 0.24 | 0.79 | 0.79 | 99 | 1007.1 |
| 20260507024716 | 53 | 208 | 7.0 | 8.7 | 0.24 | 0.77 | 0.77 | 99 | 1007.4 |
| 20260507024213 | 53 | 229 | 2.6 | 2.6 | 0.31 | 0.75 | 0.75 | 99 | 1007.4 |
| 20260507023708 | 53 | 238 | 0.0 | 0.0 | 0.31 | 0.73 | 0.73 | 99 | 1007.3 |
| 20260507023205 | 53 | 182 | 4.3 | 4.3 | 0.17 | 0.70 | 0.70 | 99 | 1007.3 |
| 20260507022702 | 53 | 171 | 5.2 | 7.8 | 0.24 | 0.68 | 0.68 | 99 | 1007.2 |
| 20260507022158 | 53 | 241 | 3.5 | 5.2 | 0.31 | 0.67 | 0.67 | 99 | 1007.3 |
| 20260507021654 | 53 | 199 | 4.3 | 5.2 | 0.24 | 0.64 | 0.64 | 99 | 1007.5 |
| 20260507021149 | 53 | 149 | 3.5 | 5.2 | 0.24 | 0.62 | 0.62 | 99 | 1007.8 |
| 20260507020649 | 53 | 229 | 2.6 | 4.3 | 0.24 | 0.59 | 0.59 | 99 | 1007.7 |
| 20260507020144 | 53 | 262 | 3.5 | 5.2 | 0.31 | 0.58 | 0.58 | 99 | 1007.8 |
| 20260507015643 | 53 | 154 | 3.5 | 5.2 | 0.24 | 0.55 | 0.55 | 99 | 1008.0 |
| 20260507015140 | 53 | 259 | 2.6 | 4.3 | 0.24 | 0.53 | 0.53 | 99 | 1008.3 |
| 20260507014636 | 53 | 233 | 0.0 | 0.0 | 0.17 | 0.51 | 0.51 | 99 | 1008.6 |
| 20260507014132 | 53 | 182 | 4.3 | 5.2 | 0.12 | 0.49 | 0.49 | 99 | 1008.7 |
| 20260507013629 | 53 | 167 | 4.3 | 5.2 | 0.14 | 0.48 | 0.48 | 99 | 1008.7 |
| 20260507013126 | 53 | 200 | 4.3 | 6.1 | 0.19 | 0.47 | 0.47 | 99 | 1008.5 |
| 20260507012624 | 53 | 212 | 4.3 | 5.2 | 0.24 | 0.46 | 0.46 | 99 | 1008.9 |
| 20260507012119 | 53 | 135 | 0.9 | 0.9 | 0.24 | 0.44 | 0.44 | 99 | 1008.9 |
| 20260507011617 | 53 | 184 | 7.8 | 8.7 | 0.17 | 0.42 | 0.42 | 99 | 1009.0 |
| 20260507011113 | 53 | 136 | 7.8 | 9.6 | 0.12 | 0.40 | 0.40 | 99 | 1009.1 |
| 20260507010608 | 53 | 245 | 0.0 | 0.0 | 0.19 | 0.39 | 0.39 | 99 | 1009.0 |
| 20260507010104 | 53 | 188 | 5.2 | 6.1 | 0.24 | 0.38 | 0.38 | 99 | 1009.0 |
| 20260507005602 | 53 | 230 | 2.6 | 2.6 | 0.24 | 0.36 | 0.36 | 99 | 1009.1 |
| 20260507005058 | 53 | 211 | 5.2 | 7.0 | 0.31 | 0.34 | 0.34 | 99 | 1009.2 |
| 20260507004555 | 53 | 217 | 4.3 | 7.0 | 0.31 | 0.32 | 0.32 | 99 | 1009.5 |
| 20260507004052 | 53 | 128 | 4.3 | 6.1 | 0.24 | 0.29 | 0.29 | 99 | 1009.7 |
| 20260507003548 | 53 | 270 | 3.5 | 7.0 | 0.24 | 0.27 | 0.27 | 99 | 1009.6 |
| 20260507003043 | 53 | 282 | 0.9 | 0.9 | 0.24 | 0.25 | 0.25 | 99 | 1009.5 |
| 20260507002540 | 53 | 222 | 5.2 | 7.0 | 0.19 | 0.23 | 0.23 | 99 | 1009.8 |
| 20260507002036 | 53 | 163 | 0.9 | 2.6 | 0.12 | 0.21 | 0.21 | 99 | 1009.7 |
| 20260507001533 | 53 | 222 | 4.3 | 5.2 | 0.12 | 0.20 | 0.20 | 99 | 1009.9 |
| 20260507001031 | 53 | 173 | 5.2 | 5.2 | 0.31 | 0.19 | 0.19 | 99 | 1010.2 |
| 20260507000526 | 53 | 208 | 3.5 | 6.1 | 0.28 | 0.18 | 0.18 | 99 | 1010.0 |
| 20260507000023 | 52 | 208 | 1.7 | 1.7 | 0.12 | 0.14 | 0.14 | 99 | 1010.1 |
| 20260506235520 | 52 | 135 | 3.5 | 5.2 | 0.07 | 0.13 | 0.13 | 99 | 1010.1 |
| 20260506235015 | 52 | 216 | 0.9 | 1.7 | 0.12 | 0.12 | 0.12 | 99 | 1009.9 |
| 20260506234513 | 52 | 164 | 2.6 | 4.3 | 0.19 | 0.12 | 0.12 | 99 | 1010.0 |
| 20260506234010 | 53 | 178 | 0.0 | 0.0 | 0.07 | 0.10 | 0.10 | 99 | 1010.1 |
| 20260506233506 | 53 | 238 | 0.0 | 0.0 | 0.05 | 0.09 | 0.09 | 99 | 1009.9 |
| 20260506233003 | 53 | 196 | 1.7 | 1.7 | 0.05 | 0.09 | 0.09 | 99 | 1010.1 |
| 20260506232459 | 53 | 212 | 2.6 | 2.6 | 0.07 | 0.08 | 0.08 | 99 | 1010.4 |
| 20260506231955 | 53 | 200 | 2.6 | 4.3 | 0.07 | 0.08 | 0.08 | 99 | 1010.5 |
| 20260506231453 | 53 | 324 | 2.6 | 2.6 | 0.00 | 0.07 | 0.07 | 99 | 1009.8 |
| 20260506230950 | 53 | 213 | 2.6 | 4.3 | 0.00 | 0.07 | 0.07 | 99 | 1009.9 |
| 20260506230446 | 53 | 188 | 2.6 | 2.6 | 0.00 | 0.07 | 0.07 | 99 | 1010.0 |
| 20260506225943 | 53 | 205 | 4.3 | 6.1 | 0.05 | 0.07 | 0.07 | 99 | 1010.2 |
| 20260506225441 | 52 | 204 | 2.6 | 4.3 | 0.05 | 0.07 | 0.07 | 99 | 1010.5 |
| 20260506224937 | 52 | 158 | 5.2 | 7.8 | 0.07 | 0.06 | 0.06 | 99 | 1010.3 |
| 20260506224434 | 52 | 176 | 4.3 | 6.1 | 0.07 | 0.06 | 0.06 | 99 | 1010.6 |
| 20260506223931 | 52 | 149 | 2.6 | 4.3 | 0.05 | 0.05 | 0.05 | 99 | 1010.1 |
| 20260506223426 | 52 | 201 | 4.3 | 5.2 | 0.05 | 0.05 | 0.05 | 99 | 1010.5 |
| 20260506222924 | 52 | 154 | 6.1 | 7.0 | 0.07 | 0.04 | 0.04 | 99 | 1010.7 |
| 20260506222420 | 52 | 117 | 2.6 | 2.6 | 0.12 | 0.04 | 0.04 | 99 | 1010.7 |
| 20260506221917 | 52 | 190 | 2.6 | 2.6 | 0.05 | 0.03 | 0.03 | 99 | 1010.9 |
| 20260506221414 | 52 | 171 | 5.2 | 7.8 | 0.07 | 0.02 | 0.02 | 99 | 1011.0 |
| 20260506220912 | 52 | 248 | 6.1 | 7.0 | 0.07 | 0.02 | 0.02 | 99 | 1011.1 |
| 20260506220407 | 52 | 181 | 2.6 | 4.3 | 0.00 | 0.01 | 0.01 | 99 | 1011.5 |
| 20260506215904 | 52 | 225 | 1.7 | 1.7 | 0.05 | 0.01 | 0.01 | 99 | 1011.3 |
| 20260506215400 | 52 | 274 | 2.6 | 4.3 | 0.05 | 0.01 | 0.01 | 99 | 1011.4 |
| 20260506214856 | 52 | 120 | 2.6 | 5.2 | 0.00 | 0.00 | 0.00 | 99 | 1011.0 |
| 20260506214353 | 52 | 163 | 2.6 | 4.3 | 0.00 | 0.00 | 0.00 | 99 | 1011.5 |
| 20260506213851 | 52 | 238 | 2.6 | 2.6 | 0.00 | 0.00 | 0.00 | 99 | 1011.5 |
| 20260506213348 | 52 | 210 | 4.3 | 7.0 | 0.00 | 0.00 | 0.00 | 99 | 1011.3 |
| 20260506212845 | 52 | 193 | 7.0 | 7.8 | 0.00 | 0.00 | 0.00 | 99 | 1011.2 |
| 20260506212341 | 53 | 186 | 2.6 | 4.3 | 0.00 | 0.00 | 0.00 | 99 | 1011.3 |
| 20260506211836 | 53 | 166 | 4.3 | 6.1 | 0.00 | 0.00 | 0.00 | 98 | 1011.3 |
| 20260506211332 | 53 | 211 | 5.2 | 6.1 | 0.00 | 0.00 | 0.00 | 97 | 1011.5 |
| 20260506210830 | 53 | 284 | 3.5 | 5.2 | 0.00 | 0.00 | 0.00 | 97 | 1011.6 |
| 20260506210327 | 53 | 132 | 1.7 | 2.6 | 0.00 | 0.00 | 0.00 | 97 | 1011.5 |
| 20260506205824 | 53 | 249 | 4.3 | 6.1 | 0.00 | 0.00 | 0.00 | 97 | 1011.5 |
| 20260506205320 | 54 | 245 | 4.3 | 6.1 | 0.00 | 0.00 | 0.00 | 96 | 1011.7 |
| 20260506204817 | 54 | 337 | 2.6 | 4.3 | 0.00 | 0.00 | 0.00 | 96 | 1011.5 |
| 20260506204314 | 54 | 199 | 2.6 | 5.2 | 0.00 | 0.00 | 0.00 | 96 | 1011.1 |
| 20260506203812 | 54 | 244 | 3.5 | 5.2 | 0.00 | 0.00 | 0.00 | 95 | 1011.7 |
| 20260506203309 | 54 | 221 | 5.2 | 7.8 | 0.00 | 0.00 | 0.00 | 95 | 1011.8 |
| 20260506202806 | 55 | 310 | 3.5 | 4.3 | 0.00 | 0.00 | 0.00 | 95 | 1011.2 |
| 20260506202306 | 55 | 156 | 3.5 | 4.3 | 0.00 | 0.00 | 0.00 | 95 | 1011.1 |
| 20260506201759 | 55 | 177 | 4.3 | 7.0 | 0.00 | 0.00 | 0.00 | 94 | 1011.5 |
| 20260506201256 | 55 | 89 | 1.7 | 2.6 | 0.00 | 0.00 | 0.00 | 94 | 1011.1 |
| 20260506200753 | 55 | 94 | 4.3 | 5.2 | 0.00 | 0.00 | 0.00 | 94 | 1010.7 |
| 20260506200249 | 55 | 89 | 6.1 | 7.8 | 0.00 | 0.00 | 0.00 | 94 | 1010.8 |
| 20260506195746 | 55 | 142 | 3.5 | 4.3 | 0.00 | 0.00 | 0.00 | 94 | 1011.1 |
| 20260506195242 | 55 | 154 | 3.5 | 4.3 | 0.00 | 0.00 | 0.00 | 94 | 1011.0 |
| 20260506194740 | 55 | 152 | 4.3 | 7.0 | 0.00 | 0.00 | 0.00 | 94 | 1011.4 |
| 20260506194236 | 55 | 47 | 5.2 | 7.8 | 0.00 | 0.00 | 0.00 | 94 | 1011.6 |
| 20260506193734 | 55 | 194 | 3.5 | 6.1 | 0.00 | 0.00 | 0.00 | 94 | 1011.2 |
| 20260506193230 | 55 | 312 | 1.7 | 1.7 | 0.00 | 0.00 | 0.00 | 94 | 1011.3 |
| 20260506192727 | 55 | 190 | 3.5 | 5.2 | 0.00 | 0.00 | 0.00 | 93 | 1011.4 |
| 20260506192224 | 55 | 203 | 8.7 | 13.0 | 0.00 | 0.00 | 0.00 | 93 | 1011.6 |
| 20260506191720 | 56 | 165 | 3.5 | 6.1 | 0.00 | 0.00 | 0.00 | 93 | 1011.7 |
| 20260506191216 | 55 | 319 | 1.7 | 2.6 | 0.00 | 0.00 | 0.00 | 93 | 1011.6 |
| 20260506190714 | 55 | 163 | 3.5 | 7.0 | 0.00 | 0.00 | 0.00 | 93 | 1011.6 |
| 20260506190210 | 55 | 259 | 2.6 | 2.6 | 0.00 | 0.00 | 0.00 | 94 | 1011.6 |
| 20260506185708 | 55 | 192 | 3.5 | 5.2 | 0.00 | 0.00 | 0.00 | 94 | 1012.1 |
| 20260506185204 | 55 | 192 | 5.2 | 6.1 | 0.00 | 0.00 | 0.00 | 94 | 1011.7 |
| 20260506184702 | 55 | 237 | 4.3 | 6.1 | 0.00 | 0.00 | 0.00 | 94 | 1011.6 |
| 20260506184159 | 55 | 191 | 4.3 | 6.1 | 0.00 | 0.00 | 0.00 | 94 | 1012.0 |
| 20260506183655 | 55 | 101 | 4.3 | 6.1 | 0.00 | 0.00 | 0.00 | 94 | 1011.9 |
| 20260506183151 | 55 | 238 | 2.6 | 4.3 | 0.00 | 0.00 | 0.00 | 95 | 1011.8 |
| 20260506182649 | 54 | 234 | 2.6 | 4.3 | 0.00 | 0.00 | 0.00 | 95 | 1011.9 |
| 20260506182146 | 54 | 91 | 4.3 | 7.0 | 0.00 | 0.00 | 0.00 | 95 | 1012.0 |
| 20260506181644 | 54 | 197 | 1.7 | 1.7 | 0.00 | 0.00 | 0.00 | 95 | 1012.1 |
| 20260506181140 | 54 | 283 | 0.9 | 0.9 | 0.00 | 0.00 | 0.00 | 95 | 1012.0 |
| 20260506180638 | 54 | 205 | 4.3 | 7.0 | 0.00 | 0.00 | 0.00 | 95 | 1012.4 |
| 20260506180134 | 54 | 146 | 7.0 | 9.6 | 0.00 | 0.00 | 0.00 | 95 | 1012.3 |
| 20260506175630 | 54 | 211 | 6.1 | 7.8 | 0.00 | 0.00 | 0.00 | 95 | 1012.4 |
| 20260506175126 | 54 | 237 | 5.2 | 6.1 | 0.00 | 0.00 | 0.00 | 95 | 1012.2 |
| 20260506174625 | 54 | 184 | 7.0 | 8.7 | 0.00 | 0.00 | 0.00 | 95 | 1012.2 |
| 20260506174122 | 54 | 133 | 1.7 | 1.7 | 0.00 | 0.00 | 0.00 | 95 | 1012.4 |
| 20260506173619 | 54 | 239 | 7.0 | 8.7 | 0.00 | 0.00 | 0.00 | 95 | 1012.7 |
| 20260506173116 | 54 | 191 | 1.7 | 5.2 | 0.00 | 0.00 | 0.00 | 95 | 1012.6 |
| 20260506172613 | 55 | 218 | 6.1 | 7.0 | 0.00 | 0.00 | 0.00 | 94 | 1012.6 |
| 20260506172109 | 55 | 226 | 5.2 | 6.1 | 0.00 | 0.00 | 0.00 | 94 | 1012.6 |
| 20260506171607 | 55 | 228 | 2.6 | 4.3 | 0.00 | 0.00 | 0.00 | 94 | 1012.7 |
| 20260506171104 | 55 | 265 | 6.1 | 7.8 | 0.00 | 0.00 | 0.00 | 94 | 1012.8 |
| 20260506170601 | 55 | 181 | 2.6 | 5.2 | 0.00 | 0.00 | 0.00 | 94 | 1012.7 |
| 20260506170059 | 55 | 234 | 3.5 | 6.1 | 0.00 | 0.00 | 0.00 | 94 | 1012.8 |
| 20260506165557 | 55 | 187 | 4.3 | 6.1 | 0.00 | 0.00 | 0.00 | 93 | 1012.7 |
| 20260506165053 | 55 | 146 | 3.5 | 5.2 | 0.00 | 0.00 | 0.00 | 93 | 1013.2 |
| 20260506164551 | 56 | 220 | 2.6 | 4.3 | 0.00 | 0.00 | 0.00 | 93 | 1012.9 |
| 20260506164048 | 56 | 233 | 4.3 | 7.0 | 0.00 | 0.00 | 0.00 | 93 | 1013.1 |
| 20260506163543 | 55 | 164 | 5.2 | 7.8 | 0.00 | 0.00 | 0.00 | 93 | 1013.3 |
| 20260506163039 | 55 | 226 | 6.1 | 7.0 | 0.00 | 0.00 | 0.00 | 93 | 1013.2 |
| 20260506162536 | 56 | 82 | 4.3 | 5.2 | 0.00 | 0.00 | 0.00 | 93 | 1013.2 |
| 20260506162033 | 55 | 187 | 7.0 | 9.6 | 0.00 | 0.00 | 0.00 | 93 | 1013.3 |
| 20260506161531 | 56 | 194 | 6.1 | 7.8 | 0.00 | 0.00 | 0.00 | 93 | 1013.1 |
| 20260506161027 | 56 | 193 | 3.5 | 5.2 | 0.00 | 0.00 | 0.00 | 93 | 1013.1 |
| 20260506160525 | 56 | 221 | 4.3 | 6.1 | 0.00 | 0.00 | 0.00 | 94 | 1013.4 |
| 20260506160022 | 56 | 317 | 6.1 | 9.6 | 0.00 | 0.00 | 0.00 | 93 | 1013.2 |